[[{"header":{"parameterUnit":"m.s-1","parameterCategory":2,"la1":30.2991,"la2":30.254,"lo1":-89.0895,"lo2":-89.0444,"dx":0.0017,"dy":0.0017,"nx":28,"ny":28,"refTime":"2022-12-09T15:00:00:Z","depth":"0","parameterNumber":2,"parameterNumberName":"U-component_of_CURRENTS"},"data":[0,0,0,0,0,0,0,0,0,0,0,0,0,0,0,0,0,0,0,0,0,0,0,0,0,0,0,0,0,0,0,0,0,0,0,0,0,0,0,0,0,0,0,0,0,0,0,0,0,0,0,0,0,0,0,0,0,0,-0.4921,-0.4921,0,-0.5002,-0.5003,-0.5004,-0.4944,-0.4941,-0.4939,-0.4936,-0.4654,-0.465,-0.4645,0,0,0,0,0,0,0,0,0,0,0,0,0,-0.4776,-0.4779,-0.4921,-0.4921,-0.4922,-0.5002,-0.5003,-0.5004,-0.4945,-0.4941,-0.4938,-0.4935,-0.4656,-0.465,-0.4644,0,0,0,0,0,0,0,0,0,0,0,0,0,-0.4848,-0.478,-0.492,-0.49,-0.4899,-0.5001,-0.5003,-0.5005,-0.4945,-0.4941,-0.4937,-0.4933,-0.4658,-0.4651,-0.4643,-0.4684,0,0,-0.4621,-0.4618,0,0,0,0,0,0,0,0,-0.4844,-0.4854,-0.4902,-0.4902,-0.4901,-0.4956,-0.4849,-0.4879,-0.4947,-0.493,-0.4936,-0.4931,-0.4723,-0.471,-0.4744,-0.4671,-0.4659,-0.4621,-0.4616,-0.4613,-0.4611,0,0,0,0,0,0,0,-0.4839,-0.485,-0.4955,-0.4904,-0.4902,-0.4908,-0.4913,-0.4856,-0.4845,-0.4932,-0.4927,-0.4933,-0.472,-0.4752,-0.4735,-0.4655,-0.4621,-0.4614,-0.461,-0.4607,-0.4538,-0.4541,0,0,0,0,0,0,-0.4827,-0.4846,-0.4953,-0.4957,-0.4858,-0.4914,-0.492,-0.4945,-0.4853,-0.4838,-0.4937,-0.493,-0.4766,-0.4744,-0.4725,-0.4658,-0.4613,-0.4606,-0.4602,-0.4536,-0.4539,-0.4542,0,0,0,0,0,0,-0.4824,-0.4836,-0.4949,-0.49,-0.4914,-0.492,-0.4949,-0.4949,-0.4951,-0.4861,-0.4837,-0.4935,-0.4762,-0.4735,-0.4681,-0.4649,-0.4603,-0.4597,-0.4533,-0.4537,-0.454,-0.4591,0,0,0,0,0,0,-0.482,-0.4835,-0.4839,-0.49,-0.4916,-0.4987,-0.4953,-0.4953,-0.4962,-0.4953,-0.4852,-0.4824,-0.4756,-0.4693,-0.4674,-0.4638,-0.4591,-0.453,-0.4535,-0.4539,-0.4587,-0.4597,-0.4605,0,0,0,0,0,-0.4815,-0.4832,-0.484,-0.4851,-0.4926,-0.4987,-0.4997,-0.4987,-0.4966,-0.4973,-0.4925,-0.4826,-0.4708,-0.469,-0.4667,-0.4628,-0.4527,-0.4533,-0.4539,-0.4582,-0.4595,-0.4605,0,0,0,0,0,0,-0.4755,-0.483,-0.4838,-0.4873,-0.4917,-0.4975,-0.4976,-0.4991,-0.4974,-0.4948,-0.4862,-0.4833,-0.4775,-0.4723,-0.4705,-0.4634,-0.46,-0.4602,-0.4641,-0.4652,-0.4661,-0.4476,-0.4585,0,0,0,0,0,-0.4754,-0.4791,-0.4857,-0.4881,-0.4899,-0.4944,-0.4963,-0.4975,-0.4976,-0.4966,-0.4912,-0.4851,-0.4796,-0.4738,-0.4696,-0.4653,-0.4529,-0.4619,-0.4628,-0.4636,-0.4479,-0.4349,-0.4327,-0.456,-0.456,-0.456,0,0,-0.4737,-0.4781,-0.48,-0.4872,-0.49,-0.4903,-0.4943,-0.4978,-0.4952,-0.4932,-0.4875,-0.4881,-0.4802,-0.4761,-0.4727,-0.4695,-0.4535,-0.4643,-0.4649,-0.4483,-0.4351,-0.4327,-0.4305,-0.4564,-0.4564,-0.4563,0,0,-0.4684,-0.4762,-0.4746,-0.4787,-0.4836,-0.4883,-0.4889,-0.4955,-0.4945,-0.4951,-0.4917,-0.488,-0.4844,-0.4752,-0.4702,-0.473,-0.4604,-0.4775,-0.4631,-0.4514,-0.4489,-0.4466,-0.4382,-0.4349,-0.4759,-0.4759,-0.476,0,-0.4628,-0.4632,-0.475,-0.4731,-0.4729,-0.4859,-0.4813,-0.4857,-0.4897,-0.4849,-0.4919,-0.4825,-0.4796,-0.4638,-0.4667,-0.4724,-0.4663,-0.4596,-0.4513,-0.4487,-0.4461,-0.4379,-0.4342,-0.4763,-0.4762,-0.4762,-0.4762,0,-0.4543,-0.4544,-0.4543,-0.4558,-0.4598,-0.46,-0.4674,-0.4699,-0.4746,-0.4759,-0.4683,-0.4702,-0.4599,-0.4657,-0.4656,-0.448,-0.4506,-0.4558,-0.446,-0.4438,-0.4359,-0.4319,-0.4767,-0.4766,-0.4765,-0.4764,0,0,-0.434,-0.4451,-0.4424,-0.439,-0.4496,-0.4498,-0.45,-0.4481,-0.441,-0.4497,-0.4377,-0.4358,-0.4381,-0.4321,-0.4361,-0.4263,-0.4128,-0.4326,-0.4319,-0.4191,-0.3884,-0.3796,-0.3745,-0.419,-0.4181,-0.4174,-0.3936,0,-0.4179,-0.4103,-0.422,-0.413,-0.4082,-0.4222,-0.4194,-0.4215,-0.427,-0.4227,-0.4228,-0.4173,-0.4256,-0.4246,-0.4151,-0.417,-0.4009,-0.4185,-0.3956,-0.3946,-0.3827,-0.3688,-0.3596,-0.3362,-0.3897,-0.389,-0.3886,0,-0.3944,-0.3951,-0.3838,-0.3861,-0.3849,-0.3839,-0.3796,-0.3807,-0.3819,-0.3859,-0.3819,-0.3886,-0.3783,-0.389,-0.3715,-0.3848,-0.3775,-0.3773,-0.3767,-0.3576,-0.3775,-0.3453,-0.3269,-0.3288,-0.3824,-0.3829,-0.3833,0,-0.3615,-0.3624,-0.3523,-0.3533,-0.3621,-0.3571,-0.3611,-0.364,-0.366,-0.3624,-0.3656,-0.356,-0.3557,-0.346,-0.3491,-0.3602,-0.3296,-0.3475,-0.3268,-0.3268,-0.306,-0.3052,-0.2779,-0.3156,-0.3157,-0.3157,-0.3158,0,-0.3319,-0.3228,-0.3359,-0.3302,-0.321,-0.3317,-0.3247,-0.3277,-0.3344,-0.3301,-0.3431,-0.3366,-0.3443,-0.3363,-0.3354,-0.3171,-0.3168,-0.31,-0.3131,-0.3099,-0.3097,-0.3001,-0.3075,-0.3149,-0.3151,-0.3152,-0.3154,0,-0.2958,-0.3032,-0.2953,-0.303,-0.3058,-0.2982,-0.315,-0.3125,-0.3183,-0.3146,-0.3147,-0.3215,-0.3105,-0.3139,-0.2993,-0.2982,-0.2784,-0.2729,-0.27,-0.2726,-0.2623,-0.2707,-0.2321,-0.2253,-0.2493,-0.2488,-0.2484,0,-0.2764,-0.2682,-0.2769,-0.2794,-0.2843,-0.2845,-0.2888,-0.3013,-0.3018,-0.3006,-0.2946,-0.2884,-0.2799,-0.2629,-0.2554,-0.2433,-0.2492,-0.2258,-0.2388,-0.2446,-0.2566,-0.2658,-0.2639,-0.2207,-0.2202,-0.2197,-0.2193,0,-0.2465,-0.2506,-0.2514,-0.2567,-0.2608,-0.2606,-0.2643,-0.2638,-0.2704,-0.2705,-0.2545,-0.2485,-0.2379,-0.2252,-0.2146,-0.2069,-0.2252,-0.2153,-0.2185,-0.2195,-0.2288,-0.2303,-0.2603,-0.215,-0.2154,-0.2157,-0.216,-0.2161,-0.2287,-0.2262,-0.2312,-0.2351,-0.2373,-0.2231,-0.215,-0.2162,-0.2072,-0.1913,-0.2099,-0.1977,-0.2067,-0.194,-0.1845,-0.174,-0.1849,-0.177,-0.1837,-0.1903,-0.1861,-0.2047,-0.1665,-0.1667,-0.1668,-0.1669,-0.167,0,-0.2075,-0.2101,-0.2129,-0.2085,-0.1969,-0.2035,-0.1916,-0.1781,-0.1542,-0.1474,-0.1413,-0.1568,-0.1542,-0.1608,-0.1581,-0.1502,-0.1511,-0.1488,-0.161,-0.1585,-0.1693,-0.1708,-0.1347,-0.1348,-0.1348,-0.1348,-0.1348,-0.1348,-0.1975,-0.1951,-0.199,-0.1715,-0.164,-0.1363,-0.1216,-0.102,-0.0918,-0.0754,-0.0806,-0.0938,-0.1284,-0.1594,-0.1553,-0.1463,-0.1478,-0.1397,-0.1443,-0.1603,-0.1638,-0.1672,-0.1698,-0.1342,-0.1342,-0.1292,-0.1292,-0.1292]},{"header":{"parameterUnit":"m.s-1","parameterCategory":2,"la1":30.2991,"la2":30.254,"lo1":-89.0895,"lo2":-89.0444,"dx":0.0017,"dy":0.0017,"nx":28,"ny":28,"refTime":"2022-12-09T15:00:00:Z","depth":"0","parameterNumber":3,"parameterNumberName":"V-component_of_CURRENTS"},"data":[0,0,0,0,0,0,0,0,0,0,0,0,0,0,0,0,0,0,0,0,0,0,0,0,0,0,0,0,0,0,0,0,0,0,0,0,0,0,0,0,0,0,0,0,0,0,0,0,0,0,0,0,0,0,0,0,0,0,0.025,0.0254,0,0.0634,0.0639,0.0644,0.0867,0.0867,0.0867,0.0868,0.1207,0.1215,0.1224,0,0,0,0,0,0,0,0,0,0,0,0,0,-0.0101,-0.0096,0.025,0.0254,0.0258,0.0633,0.0639,0.0645,0.0867,0.0867,0.0867,0.0868,0.1204,0.1214,0.1225,0,0,0,0,0,0,0,0,0,0,0,0,0,0.0149,-0.0095,0.0249,0.0409,0.0427,0.0632,0.0639,0.0646,0.0867,0.0867,0.0867,0.0868,0.12,0.1213,0.1226,0.1298,0,0,0.1266,0.1272,0,0,0,0,0,0,0,0,0.0135,0.0163,0.0382,0.0399,0.0419,0.0697,0.064,0.086,0.0866,0.0706,0.0868,0.0868,0.1028,0.1055,0.1136,0.1314,0.1329,0.1267,0.1275,0.1281,0.1285,0,0,0,0,0,0,0,0.0117,0.0149,0.0408,0.0386,0.0409,0.0527,0.0562,0.0684,0.0864,0.072,0.0736,0.0768,0.1039,0.1123,0.1145,0.1334,0.1267,0.1279,0.1287,0.1292,0.1574,0.1574,0,0,0,0,0,0,0.0047,0.0131,0.0396,0.0419,0.0268,0.0531,0.0571,0.0613,0.0864,0.0902,0.0768,0.0777,0.11,0.113,0.1158,0.1215,0.1281,0.1293,0.1301,0.1574,0.1574,0.1573,0,0,0,0,0,0,0.0038,0.0067,0.038,0.0278,0.0326,0.0535,0.0581,0.062,0.0692,0.0899,0.0937,0.0796,0.1102,0.1139,0.1272,0.123,0.1299,0.1311,0.1575,0.1574,0.1574,0.1355,0,0,0,0,0,0,0.0027,0.0062,0.0062,0.0273,0.0328,0.0465,0.0581,0.0627,0.0709,0.0725,0.0936,0.097,0.1105,0.1251,0.1285,0.125,0.1321,0.1575,0.1574,0.1574,0.1362,0.1347,0.1333,0,0,0,0,0,0.0013,0.0003,0.006,0.0092,0.0324,0.0463,0.0501,0.0657,0.0708,0.0726,0.0889,0.0963,0.1269,0.1263,0.1302,0.1269,0.1576,0.1575,0.1574,0.1369,0.135,0.1333,0,0,0,0,0,0,-0.0144,0.0031,0.0097,0.0143,0.0273,0.0497,0.0523,0.063,0.0778,0.0788,0.0983,0.1028,0.1116,0.1232,0.122,0.1349,0.1424,0.1431,0.1255,0.1238,0.1224,0.1186,0.1332,0,0,0,0,0,-0.0184,-0.0148,0.0038,0.007,0.0118,0.0312,0.0384,0.0491,0.0651,0.0718,0.0875,0.1028,0.1147,0.1221,0.1347,0.1434,0.1521,0.1433,0.1418,0.1404,0.1401,0.1481,0.1471,0.1571,0.1571,0.1571,0,0,-0.0234,-0.0139,-0.0114,0.0037,0.0148,0.022,0.0357,0.0444,0.0515,0.0727,0.0852,0.0978,0.1157,0.1253,0.1301,0.1345,0.1424,0.1403,0.139,0.1395,0.1478,0.1469,0.146,0.157,0.157,0.157,0,0,-0.0327,-0.0241,-0.0243,-0.0148,-0.0008,0.0123,0.0128,0.0335,0.0426,0.0569,0.0716,0.0829,0.104,0.116,0.1245,0.1228,0.1332,0.1243,0.1155,0.1229,0.1221,0.1215,0.1306,0.131,0.1247,0.1246,0.1246,0,-0.0405,-0.0354,-0.0225,-0.0198,-0.0133,0.0058,0.0081,0.021,0.044,0.0499,0.057,0.0855,0.1,0.1109,0.1114,0.119,0.1252,0.1198,0.1205,0.1201,0.1199,0.1294,0.1301,0.1236,0.1237,0.1238,0.1239,0,-0.0472,-0.0435,-0.0437,-0.033,-0.0253,-0.0205,-0.0024,0.006,0.019,0.0335,0.0463,0.0679,0.0843,0.0891,0.1015,0.1054,0.1109,0.1159,0.1234,0.1174,0.1281,0.1291,0.1221,0.1224,0.1228,0.123,0,0,-0.0628,-0.051,-0.051,-0.0479,-0.0318,-0.0253,-0.0179,-0.0037,0.0012,0.0212,0.0291,0.0501,0.0604,0.0707,0.0848,0.0934,0.0981,0.1026,0.1035,0.1089,0.1146,0.112,0.1132,0.1012,0.1013,0.1013,0.1224,0,-0.0717,-0.0712,-0.0619,-0.0591,-0.0559,-0.0399,-0.0338,-0.0197,-0.0048,0.0079,0.0273,0.0411,0.0537,0.061,0.0703,0.0945,0.1,0.092,0.1222,0.1232,0.1193,0.114,0.116,0.1342,0.1236,0.1238,0.1239,0,-0.0792,-0.0777,-0.0783,-0.0699,-0.0678,-0.0634,-0.0516,-0.0436,-0.0242,-0.0133,0.0011,0.0193,0.0391,0.048,0.0801,0.0739,0.0899,0.1063,0.1075,0.1137,0.1226,0.1391,0.1367,0.1522,0.1257,0.1256,0.1255,0,-0.0917,-0.0878,-0.089,-0.0855,-0.074,-0.0729,-0.0666,-0.0509,-0.0406,-0.0264,-0.0134,0.0052,0.0268,0.0438,0.0812,0.0796,0.1155,0.1184,0.1294,0.1297,0.142,0.1429,0.1559,0.1318,0.1317,0.1317,0.1316,0,-0.1003,-0.1008,-0.0953,-0.0945,-0.0964,-0.0856,-0.0814,-0.0747,-0.057,-0.0376,-0.0247,-0.0024,0.0273,0.0554,0.0762,0.109,0.1117,0.1267,0.1336,0.1343,0.1344,0.1571,0.1638,0.1325,0.1323,0.1321,0.132,0,-0.1086,-0.1056,-0.1063,-0.1016,-0.1005,-0.1015,-0.0868,-0.0754,-0.0659,-0.0395,-0.0327,-0.0007,0.0329,0.0596,0.0965,0.1108,0.145,0.1433,0.1425,0.1483,0.1654,0.1706,0.1921,0.2034,0.1561,0.1562,0.1562,0,-0.1109,-0.1127,-0.1127,-0.1123,-0.1096,-0.1064,-0.0945,-0.0814,-0.0602,-0.0307,-0.0091,0.0189,0.0489,0.0923,0.1159,0.1412,0.1546,0.1574,0.1516,0.1647,0.176,0.1795,0.1878,0.1623,0.1624,0.1625,0.1625,0,-0.1157,-0.1168,-0.1182,-0.1172,-0.1088,-0.0933,-0.0742,-0.0597,-0.0306,-0.0079,0.0309,0.0474,0.0802,0.1089,0.1299,0.1455,0.1662,0.159,0.1755,0.1817,0.1844,0.1992,0.1516,0.1631,0.1631,0.163,0.163,0.163,-0.1189,-0.1226,-0.1223,-0.1182,-0.1043,-0.0721,-0.056,-0.0259,0.0071,0.0471,0.0641,0.0918,0.1065,0.1335,0.1508,0.177,0.175,0.1863,0.1925,0.1954,0.2015,0.1521,0.1673,0.1673,0.1673,0.1672,0.1672,0,-0.1205,-0.1202,-0.1193,-0.1057,-0.0785,-0.0721,-0.0313,-0.0067,0.0368,0.0665,0.0973,0.1292,0.1506,0.1642,0.1924,0.2108,0.2188,0.2209,0.2304,0.2382,0.1993,0.1942,0.2124,0.2124,0.2123,0.2123,0.2123,0.2123,-0.1212,-0.1216,-0.1179,-0.0787,-0.0626,-0.0208,0.0051,0.0362,0.0616,0.1069,0.1305,0.1441,0.1629,0.2109,0.2432,0.2472,0.2699,0.2653,0.2791,0.2545,0.2519,0.2494,0.2463,0.275,0.2751,0.3185,0.3189,0.3192]}],[{"header":{"parameterUnit":"m.s-1","parameterCategory":2,"la1":30.2991,"la2":30.254,"lo1":-89.0895,"lo2":-89.0444,"dx":0.0017,"dy":0.0017,"nx":28,"ny":28,"refTime":"2022-12-09T15:00:00:Z","depth":"2","parameterNumber":2,"parameterNumberName":"U-component_of_CURRENTS"},"data":[0,0,0,0,0,0,0,0,0,0,0,0,0,0,0,0,0,0,0,0,0,0,0,0,0,0,0,0,0,0,0,0,0,0,0,0,0,0,0,0,0,0,0,0,0,0,0,0,0,0,0,0,0,0,0,0,0,0,-0.3314,-0.3315,0,-0.3418,-0.3419,-0.342,-0.3383,-0.3381,-0.3379,-0.3377,-0.3507,-0.3512,-0.3517,0,0,0,0,0,0,0,0,0,0,0,0,0,-0.3142,-0.3144,-0.3314,-0.3315,-0.3317,-0.3418,-0.3419,-0.342,-0.3383,-0.3381,-0.3379,-0.3376,-0.3505,-0.3511,-0.3518,0,0,0,0,0,0,0,0,0,0,0,0,0,-0.3223,-0.3145,-0.3313,-0.3315,-0.3316,-0.3418,-0.3419,-0.342,-0.3384,-0.3381,-0.3378,-0.3375,-0.3503,-0.3511,-0.3518,-0.3622,0,0,-0.3542,-0.3546,0,0,0,0,0,0,0,0,-0.3219,-0.3229,-0.3313,-0.3315,-0.3317,-0.3389,-0.3406,-0.3491,-0.3384,-0.3353,-0.3377,-0.3374,-0.3476,-0.3485,-0.3503,-0.3628,-0.3633,-0.3543,-0.3548,-0.3551,-0.3553,0,0,0,0,0,0,0,-0.3213,-0.3225,-0.335,-0.3315,-0.3318,-0.3331,-0.3339,-0.3422,-0.3425,-0.3355,-0.3354,-0.3375,-0.3476,-0.3496,-0.3506,-0.3635,-0.3543,-0.355,-0.3554,-0.3557,-0.3808,-0.381,0,0,0,0,0,0,-0.3211,-0.322,-0.3346,-0.3353,-0.3266,-0.3337,-0.3345,-0.3364,-0.3423,-0.3431,-0.3377,-0.3373,-0.3484,-0.3497,-0.3511,-0.3558,-0.3551,-0.3558,-0.3563,-0.3806,-0.3809,-0.3811,0,0,0,0,0,0,-0.3207,-0.3222,-0.3342,-0.3292,-0.3309,-0.3343,-0.3365,-0.3368,-0.3408,-0.3441,-0.3447,-0.3416,-0.3482,-0.35,-0.3564,-0.3566,-0.3562,-0.3569,-0.3804,-0.3807,-0.381,-0.3704,0,0,0,0,0,0,-0.3202,-0.3219,-0.3232,-0.3293,-0.3312,-0.3421,-0.3369,-0.3372,-0.3426,-0.3422,-0.3477,-0.3484,-0.3481,-0.3552,-0.3572,-0.3576,-0.3575,-0.3801,-0.3805,-0.3809,-0.3705,-0.3703,-0.3701,0,0,0,0,0,-0.3195,-0.3221,-0.3232,-0.3248,-0.3329,-0.3424,-0.3437,-0.3446,-0.3432,-0.3468,-0.3469,-0.3483,-0.359,-0.356,-0.3583,-0.3589,-0.3799,-0.3804,-0.3808,-0.3706,-0.3703,-0.3701,0,0,0,0,0,0,-0.3139,-0.3223,-0.3235,-0.328,-0.3358,-0.342,-0.3445,-0.3476,-0.3512,-0.3484,-0.3514,-0.3523,-0.3577,-0.3626,-0.3593,-0.368,-0.3699,-0.3708,-0.3613,-0.3612,-0.361,-0.3542,-0.3581,0,0,0,0,0,-0.3141,-0.3186,-0.3273,-0.3311,-0.3348,-0.341,-0.3449,-0.3462,-0.3504,-0.3517,-0.3558,-0.3591,-0.3619,-0.3645,-0.3691,-0.3759,-0.3728,-0.3783,-0.3781,-0.3779,-0.3744,-0.3661,-0.3644,-0.3826,-0.3826,-0.3825,0,0,-0.3124,-0.3182,-0.3201,-0.3305,-0.335,-0.3376,-0.3424,-0.3483,-0.3501,-0.3531,-0.3565,-0.36,-0.364,-0.3671,-0.3704,-0.3708,-0.3725,-0.3784,-0.3781,-0.3747,-0.3663,-0.3644,-0.3627,-0.3829,-0.3828,-0.3828,0,0,-0.3097,-0.3172,-0.3184,-0.3255,-0.3341,-0.3375,-0.3405,-0.3489,-0.3526,-0.3594,-0.3579,-0.3607,-0.3713,-0.369,-0.3701,-0.3743,-0.3719,-0.3787,-0.3714,-0.3633,-0.3614,-0.3598,-0.3564,-0.3545,-0.378,-0.378,-0.378,0,-0.3068,-0.3094,-0.3207,-0.3237,-0.3264,-0.3371,-0.3367,-0.3442,-0.3533,-0.3532,-0.3595,-0.3635,-0.3704,-0.3654,-0.3664,-0.373,-0.3685,-0.3702,-0.3619,-0.3601,-0.3585,-0.3555,-0.3535,-0.3776,-0.3776,-0.3777,-0.3777,0,-0.3031,-0.3065,-0.3089,-0.3139,-0.3192,-0.3229,-0.3326,-0.3383,-0.3447,-0.3476,-0.3505,-0.3583,-0.3582,-0.3634,-0.3668,-0.3593,-0.36,-0.3617,-0.3595,-0.3558,-0.3533,-0.3514,-0.3769,-0.3771,-0.3772,-0.3773,0,0,-0.2922,-0.3033,-0.3036,-0.3057,-0.314,-0.319,-0.3214,-0.3251,-0.3258,-0.335,-0.3336,-0.3404,-0.3426,-0.3443,-0.3493,-0.3452,-0.3357,-0.3484,-0.3482,-0.34,-0.318,-0.3071,-0.304,-0.3323,-0.3319,-0.3316,-0.3215,0,-0.2846,-0.2876,-0.2931,-0.294,-0.2964,-0.3051,-0.3082,-0.3126,-0.3195,-0.3232,-0.3273,-0.3305,-0.3363,-0.3384,-0.3333,-0.3379,-0.3296,-0.3384,-0.3273,-0.3271,-0.3131,-0.3009,-0.2822,-0.2702,-0.3196,-0.3193,-0.319,0,-0.2761,-0.2806,-0.2794,-0.2874,-0.2887,-0.2893,-0.2931,-0.2981,-0.3023,-0.3084,-0.3054,-0.3116,-0.3096,-0.3181,-0.3104,-0.3146,-0.313,-0.3149,-0.3145,-0.305,-0.312,-0.282,-0.2648,-0.3158,-0.316,-0.3163,-0.3165,0,-0.2645,-0.2705,-0.2692,-0.2723,-0.2816,-0.281,-0.2846,-0.2893,-0.293,-0.2972,-0.2974,-0.2952,-0.2982,-0.2929,-0.299,-0.3029,-0.2904,-0.297,-0.2825,-0.2822,-0.2643,-0.2628,-0.2824,-0.2824,-0.2824,-0.2824,-0.2825,0,-0.2552,-0.2551,-0.2652,-0.2664,-0.2654,-0.2744,-0.2729,-0.2784,-0.2827,-0.2815,-0.2878,-0.2858,-0.2911,-0.2873,-0.2902,-0.279,-0.2809,-0.2753,-0.2746,-0.2612,-0.2596,-0.2988,-0.3008,-0.2821,-0.2822,-0.2822,-0.2823,0,-0.2419,-0.2491,-0.2498,-0.2583,-0.2605,-0.2601,-0.266,-0.2658,-0.2725,-0.271,-0.2715,-0.2759,-0.2704,-0.2722,-0.269,-0.2668,-0.261,-0.2549,-0.2415,-0.239,-0.2612,-0.263,-0.2369,-0.2363,-0.2358,-0.2354,-0.2351,0,-0.2347,-0.234,-0.2417,-0.2419,-0.2447,-0.2471,-0.2479,-0.2582,-0.2579,-0.2632,-0.2599,-0.2568,-0.2503,-0.2411,-0.2351,-0.2275,-0.2421,-0.2085,-0.2107,-0.2523,-0.2546,-0.2571,-0.2595,-0.1869,-0.1862,-0.1856,-0.1851,0,-0.2196,-0.2225,-0.2245,-0.2245,-0.2255,-0.2269,-0.2295,-0.2292,-0.2395,-0.2404,-0.2387,-0.2348,-0.2225,-0.2055,-0.1952,-0.1907,-0.2094,-0.1962,-0.2358,-0.2015,-0.2042,-0.2069,-0.2109,-0.18,-0.1805,-0.1809,-0.1812,-0.1814,-0.2062,-0.2036,-0.2056,-0.2038,-0.2054,-0.2032,-0.1991,-0.2045,-0.2043,-0.2022,-0.2119,-0.2,-0.1954,-0.1662,-0.1585,-0.1532,-0.1676,-0.1665,-0.1687,-0.1713,-0.1674,-0.169,-0.1379,-0.1381,-0.1384,-0.1386,-0.1388,0,-0.1874,-0.1865,-0.1841,-0.1823,-0.176,-0.1835,-0.183,-0.1769,-0.1724,-0.1746,-0.1726,-0.1515,-0.1366,-0.1335,-0.1148,-0.1127,-0.1159,-0.1119,-0.1179,-0.1227,-0.127,-0.1215,-0.0795,-0.0793,-0.0792,-0.0791,0,0,-0.1772,-0.1688,-0.1678,-0.1522,-0.151,-0.1388,-0.1357,-0.1325,-0.1304,-0.1232,-0.1186,-0.1248,-0.1254,-0.1015,-0.0963,-0.0852,-0.1037,-0.0807,-0.1272,-0.1385,-0.1427,-0.1559,-0.1521,0,0,0,0,0]},{"header":{"parameterUnit":"m.s-1","parameterCategory":2,"la1":30.2991,"la2":30.254,"lo1":-89.0895,"lo2":-89.0444,"dx":0.0017,"dy":0.0017,"nx":28,"ny":28,"refTime":"2022-12-09T15:00:00:Z","depth":"2","parameterNumber":3,"parameterNumberName":"V-component_of_CURRENTS"},"data":[0,0,0,0,0,0,0,0,0,0,0,0,0,0,0,0,0,0,0,0,0,0,0,0,0,0,0,0,0,0,0,0,0,0,0,0,0,0,0,0,0,0,0,0,0,0,0,0,0,0,0,0,0,0,0,0,0,0,-0.048,-0.0479,0,-0.0338,-0.0336,-0.0334,-0.025,-0.0249,-0.0249,-0.0249,0.0189,0.02,0.0211,0,0,0,0,0,0,0,0,0,0,0,0,0,-0.0581,-0.058,-0.0481,-0.0479,-0.0477,-0.0338,-0.0336,-0.0334,-0.025,-0.0249,-0.0249,-0.0249,0.0185,0.0198,0.0212,0,0,0,0,0,0,0,0,0,0,0,0,0,-0.0496,-0.0579,-0.0481,-0.042,-0.0413,-0.0338,-0.0336,-0.0333,-0.025,-0.0249,-0.0249,-0.0249,0.018,0.0197,0.0214,0.0314,0,0,0.0266,0.0274,0,0,0,0,0,0,0,0,-0.0501,-0.0492,-0.043,-0.0424,-0.0416,-0.0313,-0.0211,-0.0103,-0.025,-0.031,-0.0249,-0.0249,0.0047,0.0075,0.0099,0.0334,0.0353,0.0268,0.0278,0.0286,0.0291,0,0,0,0,0,0,0,-0.0507,-0.0497,-0.0422,-0.0429,-0.042,-0.0366,-0.0354,-0.0191,-0.0128,-0.0304,-0.0298,-0.0286,0.0053,0.0082,0.0111,0.0359,0.0267,0.0283,0.0293,0.03,0.0729,0.073,0,0,0,0,0,0,-0.0534,-0.0504,-0.0427,-0.0418,-0.0461,-0.0365,-0.0351,-0.0345,-0.0136,-0.0107,-0.0286,-0.0282,0.0053,0.0091,0.0127,0.0258,0.0286,0.0302,0.0312,0.0728,0.073,0.0731,0,0,0,0,0,0,-0.0537,-0.0529,-0.0432,-0.0458,-0.0443,-0.0364,-0.0357,-0.0342,-0.0303,-0.0126,-0.009,-0.0262,0.0055,0.0103,0.0205,0.0276,0.0309,0.0325,0.0727,0.0729,0.073,0.0522,0,0,0,0,0,0,-0.054,-0.0531,-0.0534,-0.0461,-0.0442,-0.0386,-0.0357,-0.034,-0.0297,-0.0291,-0.0092,-0.0053,0.0059,0.0177,0.0221,0.0301,0.0338,0.0726,0.0728,0.073,0.0527,0.0516,0.0507,0,0,0,0,0,-0.0544,-0.0554,-0.0536,-0.0526,-0.0451,-0.0386,-0.037,-0.0312,-0.0297,-0.0277,-0.0203,-0.0059,0.0226,0.0188,0.0241,0.0328,0.0725,0.0727,0.073,0.0532,0.0518,0.0507,0,0,0,0,0,0,-0.0599,-0.0544,-0.0523,-0.0515,-0.0454,-0.0372,-0.0358,-0.0313,-0.0239,-0.0244,-0.0081,-0.0037,0.0086,0.0228,0.0183,0.046,0.0519,0.0531,0.0351,0.034,0.033,0.0303,0.0353,0,0,0,0,0,-0.0615,-0.061,-0.0537,-0.0532,-0.0509,-0.0433,-0.0402,-0.0365,-0.0292,-0.0261,-0.0123,0.0021,0.0141,0.0243,0.0372,0.0519,0.0589,0.0624,0.0613,0.0603,0.0619,0.0677,0.067,0.0739,0.0739,0.0739,0,0,-0.064,-0.0607,-0.0606,-0.0544,-0.0501,-0.0466,-0.0413,-0.0379,-0.0339,-0.0216,-0.012,-0.002,0.0159,0.0283,0.0365,0.0416,0.0621,0.0607,0.0596,0.0618,0.0678,0.0671,0.0664,0.0741,0.074,0.074,0,0,-0.0677,-0.0655,-0.0656,-0.061,-0.0552,-0.0502,-0.0492,-0.0402,-0.0353,-0.0285,-0.0185,-0.008,0.0136,0.0267,0.036,0.0389,0.0534,0.0478,0.0445,0.0498,0.0491,0.0487,0.0542,0.0544,0.0506,0.0506,0.0505,0,-0.0705,-0.069,-0.0643,-0.0622,-0.0589,-0.0521,-0.05,-0.0442,-0.0327,-0.0282,-0.0279,-0.0027,0.0126,0.0287,0.029,0.0371,0.0409,0.046,0.0476,0.0474,0.0472,0.0532,0.0536,0.0496,0.0497,0.0498,0.0499,0,-0.0728,-0.0713,-0.0711,-0.0663,-0.0622,-0.0599,-0.0517,-0.0465,-0.042,-0.0353,-0.023,-0.0093,0.0072,0.0153,0.0228,0.0348,0.0376,0.0413,0.0484,0.0451,0.0518,0.0526,0.0482,0.0485,0.0488,0.0491,0,0,-0.0791,-0.0737,-0.0736,-0.0716,-0.0643,-0.0612,-0.0559,-0.0474,-0.0434,-0.0346,-0.0276,-0.0098,-0.003,0.0081,0.0218,0.0288,0.0302,0.0344,0.0351,0.0358,0.0405,0.0418,0.043,0.0312,0.0313,0.0314,0.0445,0,-0.0814,-0.0803,-0.0754,-0.073,-0.0715,-0.0638,-0.0587,-0.0512,-0.0444,-0.0359,-0.0234,-0.0124,-0.0047,0.0024,0.0095,0.0262,0.0319,0.0264,0.0477,0.0485,0.0464,0.0439,0.04,0.0512,0.0453,0.0455,0.0456,0,-0.084,-0.0829,-0.0819,-0.076,-0.0744,-0.0716,-0.0634,-0.0578,-0.0459,-0.0408,-0.031,-0.0207,-0.0047,-0.0018,0.02,0.0149,0.0263,0.0361,0.0368,0.0467,0.0514,0.0549,0.0531,0.0471,0.047,0.0469,0.0468,0,-0.0908,-0.0864,-0.0862,-0.0843,-0.0771,-0.0747,-0.0704,-0.0601,-0.0547,-0.0431,-0.0393,-0.023,-0.0129,-0.0,0.0215,0.0199,0.0415,0.0429,0.0545,0.0548,0.061,0.0616,0.0547,0.0547,0.0546,0.0546,0.0545,0,-0.0943,-0.0939,-0.0899,-0.0899,-0.0889,-0.0815,-0.0777,-0.0714,-0.0613,-0.0555,-0.0419,-0.0338,-0.0131,0.0027,0.0187,0.0396,0.0398,0.0539,0.0581,0.0537,0.0535,0.0589,0.0592,0.0551,0.055,0.0549,0.0548,0,-0.1008,-0.0983,-0.0983,-0.0936,-0.0923,-0.0923,-0.0845,-0.0815,-0.0712,-0.0636,-0.0602,-0.0408,-0.0205,0.0013,0.0266,0.0381,0.0574,0.0649,0.0584,0.0615,0.0672,0.0664,0.0772,0.0773,0.0775,0.0776,0.0777,0,-0.1032,-0.1044,-0.1036,-0.1049,-0.1029,-0.1008,-0.0993,-0.089,-0.0851,-0.0674,-0.0647,-0.0427,-0.0262,0.0107,0.0355,0.0625,0.0639,0.0729,0.07,0.0665,0.0695,0.0685,0.0675,0.0701,0.0701,0.0702,0.0702,0,-0.1079,-0.1086,-0.1096,-0.113,-0.1133,-0.1126,-0.1092,-0.1075,-0.0946,-0.0859,-0.0698,-0.0548,-0.0173,0.0123,0.0465,0.0607,0.0674,0.0739,0.074,0.0637,0.0605,0.0632,0.0624,0.0703,0.0703,0.0703,0.0703,0.0703,-0.1114,-0.1148,-0.1169,-0.1193,-0.1212,-0.1227,-0.1207,-0.1165,-0.1101,-0.0946,-0.0777,-0.0522,-0.0207,0.027,0.0523,0.0745,0.0736,0.078,0.0777,0.0774,0.0729,0.07,0.0808,0.0809,0.0809,0.081,0.081,0,-0.1143,-0.1178,-0.1218,-0.1247,-0.1269,-0.1264,-0.1247,-0.1197,-0.1129,-0.0986,-0.0795,-0.043,-0.0094,0.024,0.0601,0.0806,0.0786,0.0824,0.0769,0.0766,0.0763,0.0716,0.0793,0.0794,0.0795,0.0795,0,0,-0.1157,-0.1205,-0.1228,-0.1271,-0.129,-0.1282,-0.1269,-0.1207,-0.1084,-0.0931,-0.0747,-0.0498,-0.0078,0.0169,0.0446,0.0642,0.0641,0.0644,0.0632,0.0531,0.0526,0.0711,0.0631,0,0,0,0,0]}],[{"header":{"parameterUnit":"m.s-1","parameterCategory":2,"la1":30.2991,"la2":30.254,"lo1":-89.0895,"lo2":-89.0444,"dx":0.0017,"dy":0.0017,"nx":28,"ny":28,"refTime":"2022-12-09T15:00:00:Z","depth":"4","parameterNumber":2,"parameterNumberName":"U-component_of_CURRENTS"},"data":[0,0,0,0,0,0,0,0,0,0,0,0,0,0,0,0,0,0,0,0,0,0,0,0,0,0,0,0,0,0,0,0,0,0,0,0,0,0,0,0,0,0,0,0,0,0,0,0,0,0,0,0,0,0,0,0,0,0,-0.1882,-0.1883,0,-0.1879,-0.1878,-0.1877,-0.1844,-0.1844,-0.1844,-0.1844,-0.1821,-0.1821,-0.182,0,0,0,0,0,0,0,0,0,0,0,0,0,-0.178,-0.1782,-0.1882,-0.1883,-0.1884,-0.1879,-0.1878,-0.1877,-0.1844,-0.1844,-0.1844,-0.1844,-0.1822,-0.1821,-0.182,0,0,0,0,0,0,0,0,0,0,0,0,0,-0.1795,-0.1782,-0.1882,-0.1875,-0.1875,-0.1879,-0.1878,-0.1877,-0.1844,-0.1844,-0.1844,-0.1844,-0.1822,-0.1821,-0.182,-0.1808,0,0,-0.1816,-0.1816,0,0,0,0,0,0,0,0,-0.1795,-0.1798,-0.1875,-0.1875,-0.1875,-0.1871,-0.1834,-0.1857,-0.1843,-0.1844,-0.1844,-0.1844,-0.1843,-0.184,-0.1824,-0.1807,-0.1806,-0.1816,-0.1816,-0.1815,-0.1815,0,0,0,0,0,0,0,-0.1794,-0.1797,-0.187,-0.1876,-0.1876,-0.1846,-0.1847,-0.1837,-0.1834,-0.1844,-0.1844,-0.1861,-0.1842,-0.1825,-0.1824,-0.1806,-0.1816,-0.1815,-0.1815,-0.1814,-0.1856,-0.1858,0,0,0,0,0,0,-0.182,-0.1797,-0.187,-0.1871,-0.1847,-0.1848,-0.185,-0.1864,-0.1834,-0.1833,-0.1861,-0.186,-0.1827,-0.1825,-0.1823,-0.1857,-0.1815,-0.1814,-0.1814,-0.1855,-0.1857,-0.1859,0,0,0,0,0,0,-0.1818,-0.1826,-0.187,-0.1842,-0.1847,-0.1852,-0.1866,-0.1864,-0.1884,-0.1849,-0.1846,-0.189,-0.1827,-0.1824,-0.1852,-0.1854,-0.1814,-0.1813,-0.1853,-0.1855,-0.1858,-0.1894,0,0,0,0,0,0,-0.1815,-0.1825,-0.1849,-0.1844,-0.185,-0.1878,-0.1867,-0.1864,-0.1898,-0.1896,-0.1873,-0.1868,-0.1827,-0.1854,-0.1851,-0.1852,-0.1812,-0.185,-0.1854,-0.1857,-0.189,-0.1897,-0.1903,0,0,0,0,0,-0.1811,-0.1834,-0.185,-0.186,-0.1881,-0.1879,-0.1877,-0.1873,-0.19,-0.1896,-0.1907,-0.1871,-0.1872,-0.1855,-0.1851,-0.1851,-0.1849,-0.1853,-0.1857,-0.1887,-0.1896,-0.1903,0,0,0,0,0,0,-0.18,-0.1834,-0.185,-0.1884,-0.189,-0.1878,-0.1895,-0.1904,-0.1909,-0.1927,-0.1898,-0.1893,-0.1912,-0.1895,-0.1877,-0.1878,-0.1853,-0.1857,-0.1878,-0.1886,-0.1892,-0.1906,-0.1811,0,0,0,0,0,-0.1815,-0.184,-0.1861,-0.1888,-0.1907,-0.1915,-0.1924,-0.1922,-0.193,-0.1933,-0.1925,-0.1925,-0.1919,-0.1918,-0.1904,-0.1913,-0.1907,-0.1913,-0.192,-0.1925,-0.1937,-0.1958,-0.1967,-0.1872,-0.1872,-0.1872,0,0,-0.1821,-0.1844,-0.1861,-0.1888,-0.1903,-0.1917,-0.1918,-0.1943,-0.1949,-0.1932,-0.1953,-0.1951,-0.1932,-0.193,-0.1937,-0.1919,-0.1946,-0.193,-0.1935,-0.1944,-0.1963,-0.1973,-0.1981,-0.1875,-0.1874,-0.1874,0,0,-0.1825,-0.1872,-0.1889,-0.1906,-0.1942,-0.1942,-0.1965,-0.1978,-0.1983,-0.2006,-0.1997,-0.2011,-0.2005,-0.1978,-0.1969,-0.2014,-0.1984,-0.2015,-0.2049,-0.2069,-0.2076,-0.2083,-0.2065,-0.207,-0.2012,-0.2012,-0.2012,0,-0.1833,-0.1865,-0.189,-0.1912,-0.1945,-0.1965,-0.1992,-0.1988,-0.2002,-0.2029,-0.2022,-0.2049,-0.202,-0.2029,-0.2032,-0.2023,-0.2031,-0.2012,-0.2076,-0.2082,-0.2088,-0.2068,-0.2073,-0.2015,-0.2014,-0.2014,-0.2014,0,-0.1838,-0.1881,-0.1901,-0.1939,-0.1963,-0.1994,-0.2013,-0.204,-0.2071,-0.2073,-0.2114,-0.2086,-0.2103,-0.2088,-0.2067,-0.2098,-0.2086,-0.2082,-0.205,-0.21,-0.2076,-0.208,-0.2018,-0.2017,-0.2016,-0.2016,0,0,-0.1813,-0.1891,-0.1903,-0.1944,-0.1995,-0.2015,-0.2053,-0.2092,-0.2137,-0.2141,-0.2194,-0.2169,-0.2179,-0.2171,-0.2147,-0.2154,-0.2175,-0.2143,-0.2143,-0.2114,-0.221,-0.2021,-0.2006,-0.2196,-0.2198,-0.2199,-0.2166,0,-0.1818,-0.1875,-0.191,-0.1973,-0.2016,-0.2069,-0.2101,-0.214,-0.2172,-0.2216,-0.2215,-0.2235,-0.2199,-0.2211,-0.2218,-0.2192,-0.2195,-0.2184,-0.2176,-0.2175,-0.1992,-0.2008,-0.2204,-0.217,-0.217,-0.2171,-0.2172,0,-0.1807,-0.1858,-0.1926,-0.2027,-0.2054,-0.2088,-0.219,-0.2214,-0.2273,-0.2303,-0.2339,-0.2334,-0.2334,-0.2304,-0.229,-0.2294,-0.2263,-0.2237,-0.2236,-0.2052,-0.1994,-0.2117,-0.2179,-0.2178,-0.2178,-0.2177,-0.2177,0,-0.1776,-0.1871,-0.1938,-0.1972,-0.2072,-0.2128,-0.218,-0.2251,-0.2269,-0.2355,-0.2362,-0.2407,-0.2375,-0.2395,-0.2304,-0.2324,-0.2279,-0.2295,-0.2095,-0.208,-0.2246,-0.2239,-0.2303,-0.2303,-0.2303,-0.2303,-0.2303,0,-0.1758,-0.1815,-0.1939,-0.1975,-0.205,-0.2136,-0.2201,-0.2266,-0.2328,-0.2315,-0.239,-0.2348,-0.2399,-0.2355,-0.2338,-0.2192,-0.2298,-0.2096,-0.2062,-0.2258,-0.2254,-0.2247,-0.224,-0.2302,-0.2302,-0.2302,-0.2302,0,-0.1687,-0.178,-0.1853,-0.1987,-0.203,-0.2079,-0.2168,-0.2192,-0.2276,-0.226,-0.2273,-0.2294,-0.2231,-0.2239,-0.2224,-0.2154,-0.2097,-0.2022,-0.2197,-0.2175,-0.1889,-0.1886,-0.1831,-0.1824,-0.1818,-0.1813,-0.1809,0,-0.1645,-0.1682,-0.1826,-0.1856,-0.1914,-0.1996,-0.2026,-0.2144,-0.2138,-0.2168,-0.212,-0.2096,-0.2082,-0.1901,-0.1965,-0.193,-0.1901,-0.1876,-0.1922,-0.1869,-0.1843,-0.1849,-0.1853,-0.18,-0.1798,-0.1797,-0.1795,0,-0.1547,-0.1614,-0.1671,-0.1726,-0.1778,-0.1816,-0.1867,-0.1849,-0.1933,-0.2022,-0.1897,-0.1855,-0.1764,-0.1756,-0.1714,-0.1699,-0.1914,-0.1816,-0.183,-0.1872,-0.1831,-0.1812,-0.1823,-0.1775,-0.1778,-0.178,-0.1781,0,-0.1455,-0.146,-0.153,-0.1558,-0.1613,-0.1594,-0.1661,-0.1634,-0.1652,-0.1707,-0.1651,-0.1648,-0.1704,-0.1628,-0.1598,-0.156,-0.1562,-0.1546,-0.1574,-0.1597,-0.1537,-0.1452,-0.1241,0,0,0,0,0,-0.1346,-0.1328,-0.1343,-0.1366,-0.141,-0.1438,-0.1517,-0.1583,-0.1667,-0.1522,-0.1586,-0.1501,-0.1431,-0.1452,-0.1366,-0.1516,-0.1584,-0.1413,-0.1586,-0.1663,-0.1686,-0.1638,0,0,0,0,0,0,-0.1269,-0.1284,-0.1283,-0.1185,-0.1161,-0.1184,-0.1232,-0.1307,-0.1248,-0.1345,-0.1314,-0.1397,-0.136,-0.1431,-0.1321,-0.1331,-0.1409,-0.1445,-0.1441,-0.1649,-0.1671,-0.1689,-0.1648,0,0,0,0,0]},{"header":{"parameterUnit":"m.s-1","parameterCategory":2,"la1":30.2991,"la2":30.254,"lo1":-89.0895,"lo2":-89.0444,"dx":0.0017,"dy":0.0017,"nx":28,"ny":28,"refTime":"2022-12-09T15:00:00:Z","depth":"4","parameterNumber":3,"parameterNumberName":"V-component_of_CURRENTS"},"data":[0,0,0,0,0,0,0,0,0,0,0,0,0,0,0,0,0,0,0,0,0,0,0,0,0,0,0,0,0,0,0,0,0,0,0,0,0,0,0,0,0,0,0,0,0,0,0,0,0,0,0,0,0,0,0,0,0,0,-0.0485,-0.0485,0,-0.0486,-0.0486,-0.0486,-0.0482,-0.0481,-0.048,-0.048,-0.0478,-0.0478,-0.0479,0,0,0,0,0,0,0,0,0,0,0,0,0,-0.0477,-0.0478,-0.0485,-0.0485,-0.0485,-0.0486,-0.0486,-0.0487,-0.0482,-0.0481,-0.048,-0.048,-0.0478,-0.0478,-0.0479,0,0,0,0,0,0,0,0,0,0,0,0,0,-0.0484,-0.0478,-0.0486,-0.0479,-0.0478,-0.0486,-0.0486,-0.0487,-0.0482,-0.0481,-0.048,-0.0479,-0.0477,-0.0478,-0.0479,-0.05,0,0,-0.0481,-0.0481,0,0,0,0,0,0,0,0,-0.0484,-0.0485,-0.048,-0.0479,-0.0478,-0.0479,-0.0482,-0.0489,-0.0482,-0.0485,-0.048,-0.0479,-0.0475,-0.0476,-0.0485,-0.05,-0.05,-0.0481,-0.0481,-0.0482,-0.0482,0,0,0,0,0,0,0,-0.0483,-0.0485,-0.049,-0.048,-0.0478,-0.0474,-0.0475,-0.0484,-0.0489,-0.0485,-0.0483,-0.0476,-0.0475,-0.0484,-0.0485,-0.05,-0.0481,-0.0482,-0.0482,-0.0482,-0.0538,-0.0539,0,0,0,0,0,0,-0.0475,-0.0484,-0.049,-0.049,-0.0473,-0.0475,-0.0476,-0.0483,-0.0489,-0.0487,-0.0477,-0.0476,-0.0484,-0.0484,-0.0485,-0.0486,-0.0482,-0.0482,-0.0483,-0.0537,-0.0538,-0.054,0,0,0,0,0,0,-0.0475,-0.0476,-0.049,-0.0482,-0.0483,-0.0475,-0.0484,-0.0484,-0.0493,-0.0482,-0.0481,-0.0486,-0.0483,-0.0484,-0.0495,-0.0487,-0.0483,-0.0483,-0.0536,-0.0538,-0.0539,-0.0504,0,0,0,0,0,0,-0.0475,-0.0477,-0.0486,-0.0482,-0.0483,-0.0497,-0.0484,-0.0484,-0.0487,-0.0486,-0.0489,-0.0488,-0.0482,-0.0494,-0.0496,-0.0487,-0.0484,-0.0535,-0.0537,-0.0538,-0.0504,-0.0504,-0.0505,0,0,0,0,0,-0.0475,-0.0489,-0.0487,-0.0487,-0.0495,-0.0497,-0.0499,-0.0492,-0.0488,-0.0498,-0.0498,-0.0488,-0.0508,-0.0496,-0.0498,-0.0489,-0.0534,-0.0536,-0.0538,-0.0504,-0.0504,-0.0505,0,0,0,0,0,0,-0.0496,-0.0489,-0.0487,-0.05,-0.0499,-0.0495,-0.0501,-0.0498,-0.0508,-0.0513,-0.05,-0.05,-0.0508,-0.0515,-0.0502,-0.0516,-0.052,-0.0523,-0.0494,-0.0494,-0.0494,-0.0453,-0.0484,0,0,0,0,0,-0.0504,-0.0514,-0.0503,-0.0519,-0.0515,-0.0511,-0.0513,-0.0514,-0.0516,-0.052,-0.0514,-0.0519,-0.0522,-0.052,-0.0531,-0.0538,-0.05,-0.0538,-0.0538,-0.0538,-0.051,-0.0435,-0.0423,-0.0547,-0.0547,-0.0547,0,0,-0.0519,-0.0515,-0.0523,-0.0524,-0.0523,-0.0519,-0.0512,-0.0524,-0.0518,-0.0519,-0.0516,-0.0523,-0.0528,-0.0532,-0.0536,-0.0532,-0.0493,-0.0541,-0.054,-0.0511,-0.0436,-0.0423,-0.0411,-0.0549,-0.0549,-0.0548,0,0,-0.0541,-0.0549,-0.0555,-0.0551,-0.0547,-0.0543,-0.0545,-0.0542,-0.0537,-0.0545,-0.0537,-0.0528,-0.055,-0.0526,-0.0524,-0.0536,-0.0501,-0.056,-0.0515,-0.0444,-0.0431,-0.0419,-0.0381,-0.0365,-0.0553,-0.0553,-0.0553,0,-0.0556,-0.0562,-0.0559,-0.0555,-0.0546,-0.0549,-0.0546,-0.0545,-0.0546,-0.0524,-0.0545,-0.0524,-0.0535,-0.0494,-0.0504,-0.0528,-0.0496,-0.0507,-0.0437,-0.0425,-0.0413,-0.0376,-0.036,-0.0551,-0.0552,-0.0552,-0.0552,0,-0.0572,-0.0575,-0.0579,-0.0569,-0.0562,-0.057,-0.0552,-0.0549,-0.0546,-0.0526,-0.0496,-0.05,-0.0473,-0.0489,-0.0501,-0.0432,-0.044,-0.0446,-0.0421,-0.0397,-0.0362,-0.0345,-0.0549,-0.055,-0.055,-0.0551,0,0,-0.0606,-0.0591,-0.0594,-0.0585,-0.0571,-0.0571,-0.0549,-0.0516,-0.049,-0.048,-0.0429,-0.0426,-0.0407,-0.0402,-0.0407,-0.0349,-0.0265,-0.0364,-0.0361,-0.0298,-0.012,-0.0155,-0.0141,-0.025,-0.0246,-0.0244,-0.0135,0,-0.0617,-0.062,-0.0598,-0.0594,-0.059,-0.0563,-0.0539,-0.0509,-0.0484,-0.0441,-0.04,-0.0379,-0.038,-0.038,-0.031,-0.0292,-0.0216,-0.0294,-0.0175,-0.0171,-0.0181,-0.012,-0.0233,-0.0123,-0.0119,-0.0116,-0.0114,0,-0.0633,-0.0633,-0.0634,-0.0598,-0.059,-0.0584,-0.0535,-0.0515,-0.0441,-0.0416,-0.0345,-0.0323,-0.0248,-0.0266,-0.0133,-0.0185,-0.0134,-0.0106,-0.0101,-0.0123,-0.0174,-0.0149,-0.0084,-0.0086,-0.0088,-0.0091,-0.0092,0,-0.0669,-0.065,-0.0655,-0.0648,-0.0613,-0.0596,-0.0575,-0.051,-0.0489,-0.0402,-0.0384,-0.0263,-0.0252,-0.0132,-0.0091,-0.0099,0.0044,0.0039,0.0074,0.007,0.0055,0.0042,0.0181,0.0181,0.018,0.018,0.018,0,-0.0684,-0.0688,-0.068,-0.0686,-0.0684,-0.0637,-0.0616,-0.057,-0.0507,-0.048,-0.0383,-0.0353,-0.0219,-0.014,-0.0056,0.0046,0.0083,0.0114,0.0116,0.0057,0.0043,0.0065,0.0051,0.0184,0.0183,0.0182,0.0182,0,-0.0719,-0.0716,-0.0727,-0.0708,-0.0707,-0.0712,-0.0678,-0.066,-0.0591,-0.0556,-0.0536,-0.0421,-0.031,-0.0179,-0.0023,0.0051,0.0169,0.0199,0.0108,0.0097,0.0146,0.0131,0.0292,0.0292,0.0292,0.0292,0.0292,0,-0.073,-0.0745,-0.077,-0.0793,-0.0791,-0.0791,-0.0794,-0.0724,-0.0705,-0.061,-0.0604,-0.0488,-0.0402,-0.0196,-0.0054,0.0152,0.0167,0.0236,0.0238,0.0182,0.0169,0.0153,0.0138,0.0293,0.0293,0.0293,0.0293,0,-0.075,-0.0777,-0.0795,-0.0852,-0.0877,-0.0889,-0.0884,-0.0874,-0.0792,-0.0742,-0.0648,-0.0513,-0.0389,-0.021,-0.0063,0.0079,0.0203,0.0238,0.024,0.0242,0.0184,0.0167,0.0153,0.0293,0.0293,0.0293,0.0293,0,-0.0772,-0.0806,-0.0849,-0.0886,-0.0936,-0.0962,-0.0952,-0.0913,-0.0874,-0.0754,-0.0738,-0.0566,-0.0463,-0.0249,-0.0117,0.0026,0.0078,0.0129,0.0137,0.0138,0.0055,-0.0043,0.003,0,0,0,0,0,-0.078,-0.082,-0.087,-0.0912,-0.0966,-0.0983,-0.0995,-0.0972,-0.0908,-0.0851,-0.0777,-0.065,-0.0412,-0.0313,-0.0171,-0.0117,0.009,0.0053,0.0148,0.0295,0.0295,0.022,0,0,0,0,0,0,-0.0788,-0.0847,-0.087,-0.0922,-0.0952,-0.0996,-0.1008,-0.0972,-0.0921,-0.0844,-0.0725,-0.0619,-0.0401,-0.0493,-0.0169,-0.0123,-0.0044,0.0175,0.0178,0.0295,0.0295,0.0294,0.0218,0,0,0,0,0]}]]